Location: Didvake
(42.1619°N, 44.5356°E)
Time: 19:52:11
(UTC+00:00)

Daily predictions for brighter satellites

Satellite Brightness Start Highest point End
(mag) Time Altitude Azimuth Time Altitude Azimuth Time Altitude Azimuth
Resurs 1-3 4.4 16:37:13 10° SE 16:41:11 35° ENE 16:45:10 10° N
CZ-4 R/B 4.1 16:39:32 10° SW 16:42:36 20° W 16:45:39 10° NW
Cosmos 1743 Rocket 4.0 16:39:20 10° N 16:43:29 43° ENE 16:47:37 10° SSE
MetOp-A 4.2 16:38:32 10° SSE 16:43:53 87° WSW 16:49:17 10° NNW
ERS-2 2.4 16:43:17 10° N 16:46:55 71° WNW 16:50:31 10° SSW
BREEZE-M DEB (TANK) 3.9 16:48:52 10° W 16:51:50 23° NNW 16:53:40 10° NE
Cosmos 1500 Rocket 3.6 16:51:11 10° N 16:55:33 60° E 16:59:51 10° SSE
Nadezhda 2 Rocket 4.5 16:49:28 10° N 16:55:38 84° E 17:01:44 10° S
Cosmos 2221 2.8 16:51:29 10° SSW 16:55:45 73° W 17:00:05 10° N
Cosmos 1553 Rocket 4.0 16:53:25 10° S 16:59:25 64° E 17:05:33 10° NNE
Cosmos 1862 3.9 17:01:19 10° NNW 17:05:16 60° W 17:09:13 10° S
Cosmos 2208 Rocket 4.3 17:00:34 10° NNW 17:05:59 73° WSW 17:11:24 10° S
Intercosmos 24 4.4 17:03:47 10° SSE 17:07:27 34° E 17:10:42 10° NNE
USA 186 3.3 17:06:07 10° SSW 17:08:25 26° W 17:10:36 10° NW
Cosmos 1933 4.2 17:05:41 11° SSE 17:09:07 30° E 17:12:40 10° NNE
Cosmos 1417 Rocket 4.5 17:07:13 10° S 17:13:24 69° E 17:19:32 10° NNE
CZ-4C R/B 4.3 17:07:56 10° NNW 17:13:41 26° NE 17:20:09 10° E
FALCON 9 DEB 2.8 17:11:02 10° NW 17:14:04 78° SW 17:15:58 20° SE
DELTA 2 R/B (1) 3.6 17:10:12 10° W 17:15:44 66° S 17:20:21 15° ESE
Resurs 01 Rocket 1.9 17:14:35 14° SE 17:18:09 50° ENE 17:22:27 10° N
Cosmos 1242 Rocket 3.4 17:16:15 17° SE 17:18:20 30° E 17:21:28 10° NNE
Cosmos 1437 Rocket 2.6 17:15:32 10° S 17:19:21 79° E 17:23:17 10° NNE
FALCON 9 DEB 3.0 17:17:21 10° WNW 17:20:21 61° SW 17:22:02 23° SE
OBJECT-B 2.3 17:17:40 10° SSW 17:20:40 35° W 17:23:40 10° NNW
MOS 1 4.5 17:18:30 10° S 17:24:08 76° WSW 17:29:51 10° NNW
Sich 1 3.3 17:21:56 10° N 17:26:10 52° E 17:29:03 19° SSE
FALCON 9 DEB 2.9 17:25:58 10° WNW 17:29:00 68° SW 17:30:22 29° SE
Cosmos 1503 Rocket 4.0 17:28:33 10° S 17:33:34 56° ESE 17:38:39 10° NNE
Cosmos 1782 3.7 17:32:11 24° SE 17:33:38 31° E 17:37:11 10° NNE
BREEZE-M DEB (TANK) 3.5 17:26:15 10° WNW 17:35:54 79° NNE 17:37:51 25° ESE
SPOT 5 4.5 17:34:25 16° E 17:36:43 22° ENE 17:40:38 10° NNE
IRIS 3.7 17:36:44 10° W 17:39:09 73° S 17:40:07 37° ESE
Cosmos 2278 Rocket 3.4 17:42:14 21° ESE 17:42:45 21° E 17:46:51 10° NE
Terra 3.6 17:44:37 15° E 17:46:12 18° ENE 17:49:22 10° NNE
Cosmos 1151 Rocket 3.3 17:44:28 26° SSE 17:46:29 46° E 17:50:41 10° NNE
Ariane Rocket 3.9 17:42:45 10° S 17:47:35 45° W 17:52:26 10° NNW
Meteor 1-25 Rocket 4.3 17:42:30 10° N 17:48:22 78° E 17:52:21 21° SSE
Cosmos 1602 3.8 17:51:01 10° N 17:54:49 58° E 17:55:58 39° SE
Cosmos 1844 Rocket 3.5 17:49:40 10° SW 17:55:05 53° WNW 18:00:34 10° NNE
BREEZE-M R/B 3.3 17:53:55 10° W 17:56:21 35° NNW 17:58:32 11° NE
USA 290 2.1 17:53:30 10° NNW 17:56:45 82° ENE 17:57:23 55° SSE
CZ-2C R/B 3.6 17:53:04 10° NNE 17:57:34 83° ESE 18:01:04 17° S
SPOT 1/Viking Rocket 3.6 17:55:32 28° SSE 17:58:18 69° ENE 18:03:29 10° N
MetOp-B 4.1 17:55:32 24° SSE 17:58:51 88° ENE 18:04:14 10° NNW
FALCON 9 DEB 4.2 18:00:46 10° WNW 18:03:24 27° SW 18:03:35 26° SW
Cosmos 1515 Rocket 4.4 18:03:24 31° E 18:03:41 32° E 18:07:36 10° NNE
Cosmos 1354 Rocket 3.9 17:59:31 10° SSW 18:04:45 89° WNW 18:10:02 10° NNE
Cosmos 2084 3.5 18:05:20 43° SSE 18:05:59 48° ESE 18:10:03 10° NE
ARIANE 5 R/B 2.8 18:05:35 40° SE 18:06:48 54° ENE 18:11:03 10° N
SL-4 R/B 2.9 18:04:22 10° WNW 18:08:37 43° SW 18:10:01 33° S
Cosmos 1709 Rocket 3.9 18:05:30 10° N 18:11:39 88° E 18:15:06 28° S
SPOT 3 Rocket 4.1 18:08:22 20° S 18:11:52 54° W 18:16:56 10° NNW
NOSS 3-3 (A) 3.7 18:08:43 10° SSW 18:14:20 75° ESE 18:20:43 10° NE
NOSS 3-3 (C) 3.7 18:08:49 10° SSW 18:14:26 74° ESE 18:20:49 10° NE
X-37B 1.0 18:12:10 10° WNW 18:15:20 58° N 18:15:36 55° NE
Cosmos 1633 Rocket 3.0 18:11:25 10° N 18:15:50 88° E 18:17:11 45° S
JB-3 4.2 18:12:01 10° NNE 18:15:54 60° E 18:16:12 58° SE
Landsat 7 4.4 18:13:44 23° SSW 18:16:27 53° W 18:21:07 10° NNW
Cosmos 1812 3.1 18:21:29 48° ENE 18:21:29 48° ENE 18:24:56 10° NNE
ATLAS 5 CENTAUR R/B 2.3 18:15:39 10° NW 18:21:24 89° NE 18:24:09 38° SE
Cosmos 1437 3.7 18:22:49 36° NNE 18:22:49 36° NNE 18:24:41 10° N
Cosmos 1328 Rocket 3.5 18:22:49 37° SSW 18:24:31 83° W 18:28:58 10° N
Cosmos 1470 Rocket 3.6 18:20:29 10° N 18:24:57 63° E 18:25:37 55° ESE
Meteor 1-26 Rocket 4.5 18:19:58 14° SSW 18:24:57 69° W 18:30:32 10° N
Cosmos 2315 Rocket 4.1 18:19:52 17° SSW 18:24:59 79° W 18:31:25 10° N
CARTOSAT-1 3.4 18:29:55 59° SSE 18:30:43 89° W 18:35:03 10° NNW
Cosmos 1833 Rocket 3.2 18:25:17 10° NNW 18:30:44 47° ENE 18:32:18 38° ESE
Meteor 1-14 Rocket 4.2 18:25:42 10° N 18:31:37 85° E 18:33:40 42° SSE
Cosmos 1933 Rocket 3.6 18:35:13 10° N 18:39:30 57° E 18:39:31 57° E
Cosmos 1538 Rocket 4.3 18:37:04 10° N 18:42:19 52° ENE 18:43:14 47° E
Cosmos 1666 3.3 18:39:33 10° N 18:42:29 44° NE 18:42:29 44° NE
Iridium 4 Rocket 3.7 18:42:17 51° SSE 18:43:41 71° E 18:49:33 10° N
Meteor 1-27 Rocket 4.2 18:53:51 44° E 18:54:05 45° E 18:59:39 10° NNE
Resurs 01 Rocket 4.1 18:52:16 10° SW 18:54:54 15° W 18:57:34 10° NW
Spot 2 Rocket 4.2 18:54:01 36° SW 18:55:30 46° W 19:00:22 10° NNW
Cosmos 773 Rocket 4.2 18:50:38 10° NNW 18:55:53 64° WSW 18:56:53 53° SSW
Meteor 2-6 Rocket 4.1 18:59:04 49° SSW 19:00:32 77° W 19:06:03 10° N
SJ 16-02 1.5 19:01:24 63° NE 19:01:24 63° NE 19:05:12 10° NNE
COSMOS 2406 3.1 18:55:06 10° NNW 19:00:48 81° ENE 19:01:39 65° SE
DELTA 2 R/B (1) 4.3 18:56:42 10° W 19:01:06 36° SW 19:01:06 36° SW
Cosmos 2228 Rocket 3.6 19:02:39 49° NE 19:02:39 49° NE 19:06:13 10° NNE
CZ-4C R/B 3.0 18:55:50 10° NW 19:03:15 83° NE 19:06:07 46° SE
Cosmos 2082 Rocket 2.7 18:58:26 10° NNW 19:03:49 45° ENE 19:04:38 42° E
USA 306 4.2 19:06:34 10° NW 19:10:28 34° NNE 19:10:57 33° NE
ERS-1 Rocket 3.5 19:10:53 46° SW 19:11:37 50° W 19:16:31 10° NNW
SPOT 5 3.5 19:13:39 45° SW 19:14:22 48° W 19:19:24 10° NNW
SL-24 DEB 4.2 19:14:58 77° N 19:14:58 77° N 19:19:16 10° N
Meteor 1-11 Rocket 3.7 19:13:34 10° N 19:19:35 82° E 19:20:13 71° SE
H-2A R/B 4.1 19:17:22 10° N 19:21:22 51° WNW 19:21:22 51° WNW
Terra 2.2 19:23:30 53° WSW 19:23:32 53° W 19:28:12 10° NNW
Cosmos 1271 Rocket 3.8 19:25:17 46° NW 19:25:17 46° NW 19:28:29 10° N
Cosmos 2278 Rocket 2.7 19:23:58 33° SW 19:26:21 56° WNW 19:31:56 10° NNE
Cosmos 923 Rocket 4.1 19:30:12 10° NNW 19:35:12 66° NE 19:35:12 66° NE
Cosmos 2327 Rocket 4.4 19:29:07 10° N 19:35:33 86° W 19:36:22 70° S
USA 307 4.0 19:31:45 10° NW 19:35:20 42° N 19:35:20 42° N
Cosmos 1898 Rocket 4.2 19:37:11 42° ENE 19:37:11 42° ENE 19:41:06 10° NNE
Cosmos 2369 Rocket 4.3 19:39:56 14° ENE 19:39:56 14° ENE 19:41:19 10° ENE
Cosmos 1340 Rocket 4.2 19:35:54 10° N 19:38:30 35° NNE 19:38:30 35° NNE
SL-8 Rocket 4.5 19:35:54 10° N 19:41:57 45° ENE 19:42:18 45° E
Cosmos 1943 Rocket 3.3 19:48:57 33° ENE 19:48:57 33° ENE 19:52:33 10° NE
Cosmos 2154 Rocket 4.0 19:41:15 10° NNW 19:47:32 68° W 19:48:15 62° SW
Cosmos 1869 Rocket 4.5 19:43:30 10° NNW 19:46:44 45° NW 19:46:44 45° NW
USA 308 4.1 19:45:11 10° NW 19:48:19 41° NNW 19:48:19 41° NNW
Cosmos 1536 4.2 19:45:28 10° NNW 19:48:06 38° NNW 19:48:06 38° NNW
NOSS 3-4 (A) 3.8 19:51:24 10° NW 19:58:32 84° WSW 19:59:37 69° SSE
NOSS 3-4 (C) 3.8 19:51:31 10° NW 19:58:39 85° SW 19:59:44 69° SSE
Cosmos 990 Rocket 4.2 20:00:01 68° N 20:00:01 68° N 20:04:41 10° NNE
ALOS 2 4.0 20:01:18 33° NE 20:01:18 33° NE 20:04:15 10° N
Cosmos 44 4.2 19:58:46 10° NNW 20:03:58 45° NE 20:04:00 45° NE
ATLAS 5 CENTAUR R/B 4.3 20:01:49 10° WNW 20:05:40 17° WSW 20:05:40 17° WSW
Cosmos 962 Rocket 4.3 20:00:58 10° N 20:07:07 81° W 20:07:09 81° WSW
USA 215 4.1 20:07:45 24° E 20:11:20 46° NNE 20:17:31 10° NW
ATLAS 2AS CENTAUR R/B 2.7 20:04:53 10° NNW 20:12:14 74° NE 20:13:08 65° ESE
Cosmos 2112 Rocket 4.3 20:08:54 10° NNW 20:13:30 66° NNW 20:13:30 66° NNW
Cosmos 1833 Rocket 4.2 20:09:49 10° NW 20:14:00 25° W 20:14:00 25° W
Cosmos 1238 Rocket 3.8 20:13:05 10° N 20:19:03 80° N 20:19:03 80° N
SeaSat 1 4.1 20:16:27 10° NE 20:18:46 24° ENE 20:18:46 24° ENE
Cosmos 2297 3.8 20:22:05 73° NNW 20:22:05 73° NNW 20:27:19 10° NNE
Cosmos 2181 Rocket 3.9 20:22:34 86° N 20:22:34 86° N 20:28:35 10° N
Cosmos 2341 Rocket 4.4 20:31:58 10° NNW 20:38:09 53° W 20:38:14 53° W
Cosmos 2366 rocket 3.9 20:33:30 10° N 20:39:26 79° WNW 20:39:26 79° WNW
SJ 16-02 4.1 20:38:19 10° WNW 20:39:55 12° NW 20:41:36 10° NNW
Cosmos 1937 Rocket 4.1 20:43:58 50° NW 20:43:58 50° NW 20:48:21 10° NNE
Cosmos 2082 Rocket 3.7 20:43:02 10° NW 20:46:29 25° W 20:46:29 25° W
Cosmos 1818 4.0 20:42:17 10° NNW 20:47:03 61° N 20:47:03 61° N
Thor Agena Rocket 4.1 20:43:06 10° NNE 20:47:12 53° NE 20:47:12 53° NE
CZ-4C R/B 4.3 20:45:27 10° WNW 20:51:18 25° WSW 20:51:18 25° WSW
Nimbus 7 Rocket 4.4 20:49:58 10° NNE 20:55:30 77° NNW 20:55:30 77° NNW
Cosmos 2218 Rocket 4.3 20:51:24 10° NNW 20:57:19 57° W 20:57:19 57° W
Cosmos 1461 4.3 21:17:09 41° N 21:17:09 41° N 21:20:24 10° NNE
Nadezhda 3 Rocket 3.9 21:17:29 84° NE 21:17:29 84° NE 21:23:33 10° N
Cosmos 2369 Rocket 2.4 21:21:42 63° NNW 21:21:42 63° NNW 21:26:49 10° NNE
Cosmos 2150 Rocket 4.5 21:24:20 59° NE 21:24:20 59° NE 21:28:40 10° NNE
Meteor 1-13 Rocket 4.3 21:27:05 70° NNE 21:27:05 70° NNE 21:31:58 10° N
Lacrosse 5 4.2 21:31:51 13° E 21:31:51 13° E 21:32:52 10° ENE
Meteor 1-12 Rocket 4.3 21:24:48 10° N 21:30:16 77° N 21:30:16 77° N
Cosmos 1943 Rocket 3.4 21:30:26 30° WNW 21:31:09 31° NW 21:36:07 10° N
Cosmos 1607 3.9 21:35:20 88° WNW 21:35:21 88° NW 21:41:53 10° NNE
RESURS DK-1 4.1 21:31:40 10° NNW 21:34:02 31° N 21:34:02 31° N
Cosmos 1867 3.8 21:38:19 66° NNE 21:38:19 66° NNE 21:43:03 10° NNE
Cosmos 2263 4.4 21:40:42 65° NW 21:40:42 65° NW 21:46:14 10° NNE
Cosmos 1066 Rocket 4.3 21:44:50 79° N 21:44:50 79° N 21:50:13 10° N
Meteor 1-23 Rocket 4.4 21:46:06 69° ENE 21:46:06 69° ENE 21:51:40 10° NNE
Cosmos 1605 Rocket 4.4 21:40:31 10° N 21:46:36 53° ENE 21:47:33 49° ESE
Helios 1A 4.2 21:55:03 39° N 21:55:03 39° N 21:57:48 10° N
USA 215 3.3 21:55:02 57° W 21:55:02 57° W 22:00:41 10° NW
ATLAS CENTAUR R/B 3.3 21:56:54 25° NNE 21:56:54 25° NNE 21:58:34 10° NNE
Cosmos 1125 Rocket 3.8 21:55:35 62° NNW 21:55:35 62° NNW 22:00:11 10° NNE
Cosmos 1656 Rocket 4.0 21:57:43 53° NW 21:57:43 53° NW 22:02:55 10° NNE
SeaSat 1 3.6 21:54:01 10° N 21:58:24 33° NW 21:58:33 33° WNW
Cosmos 494 Rocket 4.5 21:56:13 10° NNW 22:00:14 53° NW 22:00:14 53° NW
USA 81 4.2 21:56:45 10° N 22:01:45 69° ENE 22:01:45 69° ENE
ATLAS 2AS CENTAUR R/B 4.3 21:57:07 10° WNW 22:00:32 20° W 22:00:32 20° W
Cosmos 2344 4.4 21:53:18 10° NW 22:02:54 84° NE 22:16:26 10° SE
Cosmos 1833 4.4 22:00:42 10° NNW 22:05:36 59° WNW 22:05:36 59° WNW
Cosmos 1674 Rocket 4.3 22:12:53 50° NE 22:12:53 50° NE 22:16:25 10° NNE
CZ-2D R/B 2.8 22:07:10 10° NNE 22:12:19 43° E 22:12:36 43° ESE
Okean 2 Rocket 4.2 22:20:16 10° NNW 22:23:08 37° NW 22:23:08 37° NW
Cosmos 2151 Rocket 4.3 22:20:08 10° NNW 22:23:33 50° NNW 22:23:33 50° NNW
Cosmos 1842 4.5 22:27:04 40° NNE 22:27:04 40° NNE 22:29:37 10° N
Meteor 1-22 Rocket 4.3 22:20:31 10° N 22:26:31 86° E 22:27:17 69° SSE
Meteor 2-10 4.3 22:21:19 10° N 22:26:42 61° ENE 22:27:25 55° ESE
SL-16 R/B 2.9 22:24:23 39° SE 22:26:42 63° ENE 22:32:53 10° N
MOZ.5/SAFIR/RUBIN 5/SL-8 4.0 22:27:51 63° NNW 22:27:51 63° NNW 22:31:45 10° NNW
ISS -1.3 22:30:30 21° N 22:30:30 21° N 22:32:54 10° NE
Cosmos 1934 Rocket 4.5 22:27:10 10° NNW 22:32:49 43° W 22:32:49 43° W
ADEOS II 3.4 22:28:44 10° NE 22:33:21 31° E 22:34:38 27° ESE
Cosmos 724 4.4 22:34:42 61° WSW 22:35:37 71° NW 22:41:53 10° NNE
Resurs 1-4 Rocket 2.0 22:31:27 10° NNE 22:36:43 74° ESE 22:37:05 70° SE
Cosmos 1269 Rocket 3.9 22:31:42 10° NNW 22:37:01 88° WSW 22:37:08 86° S
USA 281 3.1 22:36:11 60° SSW 22:37:19 71° WSW 22:43:53 10° NNW
NOSS 2-1 (C) 4.5 22:33:24 10° NNW 22:38:31 73° NE 22:45:48 10° SE
BREEZE-M R/B 3.4 22:41:54 77° S 22:41:54 77° S 22:49:46 10° SE
Cosmos 1727 Rocket 3.9 22:43:54 61° SSW 22:45:09 85° W 22:51:32 10° N
NOSS 2-1 (D) 4.4 22:40:09 10° NNW 22:45:18 82° NE 22:52:40 10° SE
COSMOS 2455 3.9 22:45:47 10° NNW 22:51:33 45° NE 22:57:17 10° SE
Meteor 1-29 4.4 22:48:36 10° NNE 22:51:00 36° ENE 22:51:00 36° ENE
Cosmos 1674 4.4 22:52:47 25° ESE 22:53:14 25° E 22:56:26 10° NNE
Cosmos 1953 4.3 22:52:12 10° NNE 22:55:32 25° ENE 22:57:20 18° ESE
Cosmos 1656 4.3 22:58:17 37° SE 22:59:39 44° ESE 23:04:51 10° NE
Meteor 2-20 Rocket 4.4 23:04:36 52° SSW 23:06:09 74° W 23:12:21 10° N
Cosmos 1707 3.0 23:07:16 63° NNW 23:07:16 63° NNW 23:10:35 10° N
Okean 2 4.2 23:10:52 40° WNW 23:10:52 40° WNW 23:14:23 10° N
Cosmos 44 Rocket 3.5 23:06:03 10° NW 23:10:51 55° WSW 23:10:51 55° WSW
Lacrosse 5 1.8 23:11:02 60° WSW 23:11:55 78° NW 23:17:02 10° NE
Cosmos 1975 Rocket 3.1 23:13:54 60° SSE 23:14:32 72° E 23:18:53 10° NNE
ARIANE 5 R/B 4.4 23:15:28 10° NE 23:19:38 24° E 23:23:38 10° SSE
Cosmos 1726 3.2 23:17:01 10° NNW 23:19:29 34° NW 23:19:29 34° NW
Cosmos 1725 Rocket 4.5 23:14:31 10° N 23:20:43 59° E 23:26:14 13° SSE
Meteor 1-21 4.5 23:19:29 45° WSW 23:20:53 55° WNW 23:26:36 10° N
UNK 4.1 23:21:40 45° W 23:21:40 45° W 23:25:52 10° NNW
Helios 1B rocket 3.3 23:19:58 10° N 23:23:44 36° WNW 23:23:44 36° WNW
Cosmos 2061 Rocket 4.2 23:18:09 10° N 23:24:27 70° E 23:29:37 16° SSE
Cosmos 1908 4.1 23:22:44 10° N 23:26:29 46° ENE 23:28:19 26° SE
Cosmos 1758 3.5 23:24:15 10° NNW 23:28:05 53° W 23:28:05 53° W
ARGOS Delta rocket 3.7 23:25:10 10° N 23:29:43 69° WNW 23:30:46 51° SW
Cosmos 1932 4.5 23:29:25 38° SSW 23:32:07 83° ESE 23:38:29 10° NE
Cosmos 1626 3.2 23:32:34 29° SE 23:33:50 40° E 23:37:19 10° NNE
ATLAS CENTAUR R/B 3.8 23:33:31 10° NW 23:34:21 11° NW 23:35:11 10° NNW
Cosmos 1697 Rocket 3.5 23:32:09 24° SSE 23:35:11 45° ESE 23:40:31 10° NE
Cosmos 371 Rocket 3.2 23:33:56 44° SSW 23:35:30 84° ESE 23:40:25 10° NNE
AQUA 4.3 23:32:17 10° N 23:36:50 46° WNW 23:37:52 39° WSW
Cosmos 1315 Rocket 2.7 23:33:12 10° NNW 23:37:09 64° W 23:37:30 60° SW
Cosmos 1459 Rocket 4.0 23:31:09 10° NNW 23:37:19 60° W 23:40:06 32° SSW
NPP 4.3 23:33:07 10° N 23:38:09 41° WNW 23:39:45 33° WSW
Cosmos 332 Rocket 4.3 23:36:03 30° SSE 23:38:16 55° ESE 23:43:02 10° NNE
Okean 1 Rocket 4.4 23:35:22 10° NW 23:38:20 24° WNW 23:38:20 24° WNW
Cosmos 2016 Rocket 3.9 23:32:38 10° N 23:38:57 86° W 23:43:22 20° S
Lacrosse 4 Rocket 3.3 23:38:25 16° SSE 23:40:53 25° ESE 23:44:31 10° NE
CBERS-1 3.9 23:40:03 10° NNE 23:45:11 88° W 23:47:36 32° SSW
Meteor 1-28 Rocket 3.0 23:44:25 49° S 23:45:20 81° W 23:49:04 10° NNW
Cosmos 1980 Rocket 3.8 23:40:47 10° SSE 23:45:30 28° ESE 23:50:16 10° NE
SL-14 R/B 4.5 23:44:08 19° SSE 23:46:27 38° E 23:50:06 10° NNE
Cosmos 2173 Rocket 4.2 23:40:51 10° NNW 23:46:44 49° W 23:49:26 30° SSW
CZ-2C R/B 2.9 23:48:33 15° SE 23:48:33 15° SE 23:49:30 10° SE
CZ-2D R/B 3.4 23:47:41 10° N 23:52:07 26° WNW 23:53:56 22° W
Cosmos 2369 4.5 23:48:58 18° S 23:52:58 48° ESE 23:58:27 10° NE
Cosmos 2227 Rocket 2.2 23:48:27 10° NNW 23:54:08 82° ENE 23:59:47 10° SSE
